Location: Bastelaar
(51.0950°N, 3.8602°E)
Time: 07:01:07
(UTC+00:00)

BlueWalker 3 - Pass Details

Date: 21 January 2026
Orbit: 450 x 461 km, 53.2° (Epoch: 11 February)

Event Time Altitude Azimuth Distance (km) Brightness Sun altitude
Rises 18:56:52 0° 225° (SW) 2,448 6.1 -24.7°
Reaches altitude 10° 18:59:04 10° 218° (SW) 1,578 4.9 -25.1°
Enters shadow 19:00:20 20° 208° (SSW) 1,116 3.9 -25.3°
